User: anonymous   Login
Location: Argonnex
(45.9500°N, 6.1333°E)
Time: 06:19:04
(UTC+00:00)
Language:

Cosmos 2251 Rocket - Orbit

View from above orbital plane
View from above orbital plane
View from above satellite
View from above satellite

Ground track
Ground track

The orbit data is extracted from the following two-line orbital elements,

1 22676U 93036B   23151.45574986  .00000328  00000-0  12577-3 0  9992
2 22676  74.0403 164.7235 0018375  15.6786 344.4931 14.34304231566705
Epoch (UTC): 31 May 2023 10:56:16
Eccentricity: 0.0018375
inclination: 74.0403°
perigee height: 764 km
apogee height: 790 km
right ascension of ascending node: 164.7235°
argument of perigee: 15.6786°
revolutions per day: 14.34304231
mean anomaly at epoch: 344.4931°
orbit number at epoch: 56670

The dashed part of the orbit path shows where the satellite is in the earth's shadow,  

DLR